Location: Elmsmere
(40.9284°N, 73.8207°W)
Time: 21:03:56
(UTC+00:00)

STARLINK-2695 - Pass Details

Date: 26 June 2021
Orbit: 546 x 548 km, 53.1° (Epoch: 31 July)

Event Time Altitude Azimuth Distance (km) Brightness Sun altitude
Exits shadow 07:59:47 16° 258° (WSW) 1,478 5.3 -13.1°
Maximum altitude 08:02:52 46° 328° (NNW) 736 4.3 -12.8°
Drops below altitude 10° 08:06:51 10° 42° (NE) 1,817 7.8 -12.2°
Sets 08:09:10 0° 49° (NE) 2,712 9.3 -11.9°
